Location: Peach Mountain Observatory
(42.3967°N, 83.9367°W)
Time: 15:43:28
(UTC-05:00)

S-56A Canister/Altair - Pass Details

Date: 29 January 2020
Orbit: 633 x 2499 km, 38.9° (Epoch: 22 February)

Event Time Altitude Azimuth Distance (km) Brightness Sun altitude
Rises 23:29:20 0° 275° (W) 3,500 - -60.2°
Reaches altitude 10° 23:32:19 10° 268° (W) 2,351 - -60.5°
Maximum altitude 23:37:04 36° 202° (SSW) 1,064 - -61.1°
Drops below altitude 10° 23:41:08 10° 135° (SE) 2,007 - -61.5°
Sets 23:43:29 0° 126° (SE) 2,916 - -61.7°
